Ridgecrest, CA

11:25 PM PST on December 02, 2016 (GMT -0800)
China Lake NAWS

Weather History for KNID - December, 2012

Change the Weather History Date:

Thursday, December 27, 2012

  Actual Average Record
Temperature  
Mean Temperature 38 °F -  
Max Temperature 54 °F 55 °F 64 °F (1999)
Min Temperature 23 °F 29 °F 17 °F (2011)
Degree Days  
Heating Degree Days 26    
Moisture  
Dew Point 18 °F    
Average Humidity 46    
Maximum Humidity 78    
Minimum Humidity 22    
Precipitation  
Precipitation 0.00 in - - ()
Sea Level Pressure  
Sea Level Pressure 30.01 in    
Wind  
Wind Speed 5 mph (WNW)    
Max Wind Speed 12 mph    
Max Gust Speed -    
Visibility 10 miles    
Events      
Averages and records for this station are not official NWS values.
T = Trace of Precipitation, MM = Missing Value Source: NWS Daily Summary

Daily Weather History Graph

Daily Weather History Graph

Search for Another Location

Airport or City:

Trip Planner

Search our weather history database for the weather conditions in past years. The results will help you decide how hot, cold, wet, or windy it might be!

Date:

Astronomy

Dec. 27, 2012 Rise Set
Actual Time 6:59 AM PST 4:45 PM PST
Civil Twilight 6:31 AM PST 5:13 PM PST
Nautical Twilight 5:59 AM PST 5:45 PM PST
Astronomical Twilight 5:27 AM PST 6:16 PM PST
Moon 4:31 PM PST (12/27) 6:14 AM PST (12/27)
Length of Visible Light 10h 42m
Length of Day
9h 45m
Full, 100% of the Moon is Illuminated
Dec 27
Full
Dec 28
Full
Jan 4
Last Quarter
Jan 11
New
Jan 18
First Quarter

Hourly Weather History & Observations

Time (PST) Temp. Windchill Dew Point Humidity Pressure Visibility Wind Dir Wind Speed Gust Speed Precip Events Conditions
12:56 AM 36.0 °F 29.6 °F 21.9 °F 57% 29.89 in 10.0 mi NNW 8.1 mph - N/A   Clear
1:56 AM 35.1 °F 31.0 °F 21.0 °F 57% 29.91 in 10.0 mi Variable 4.6 mph - N/A   Clear
2:56 AM 33.1 °F - 21.0 °F 61% 29.91 in 10.0 mi Calm Calm - N/A   Clear
3:56 AM 28.9 °F 21.1 °F 19.9 °F 69% 29.92 in 10.0 mi SSE 8.1 mph - N/A   Clear
4:56 AM 28.0 °F 24.2 °F 19.9 °F 72% 29.94 in 10.0 mi SW 3.5 mph - N/A   Clear
5:56 AM 23.0 °F - 17.1 °F 78% 29.96 in 10.0 mi Calm Calm - N/A   Clear
6:56 AM 26.1 °F 18.4 °F 19.0 °F 75% 29.98 in 10.0 mi SW 6.9 mph - N/A   Clear
7:56 AM 32.0 °F 28.7 °F 21.9 °F 66% 30.00 in 10.0 mi WSW 3.5 mph - N/A   Clear
8:56 AM 35.1 °F - 21.0 °F 57% 30.02 in 10.0 mi Calm Calm - N/A   Partly Cloudy
9:56 AM 44.1 °F - 21.9 °F 42% 30.04 in 10.0 mi Calm Calm - N/A   Partly Cloudy
11:56 AM 50.0 °F - 19.0 °F 29% 29.98 in 10.0 mi Calm Calm - N/A   Partly Cloudy
12:56 PM 51.1 °F - 18.0 °F 27% 29.97 in 10.0 mi Calm Calm - N/A   Partly Cloudy
1:56 PM 53.1 °F - 17.1 °F 24% 29.96 in 10.0 mi Calm Calm - N/A   Partly Cloudy
2:56 PM 54.0 °F - 16.0 °F 22% 29.98 in 10.0 mi NNE 5.8 mph - N/A   Clear
3:56 PM 53.1 °F - 16.0 °F 23% 29.99 in 10.0 mi NW 4.6 mph - N/A   Partly Cloudy
4:56 PM 48.9 °F - 12.9 °F 24% 30.01 in 10.0 mi North 10.4 mph - N/A   Partly Cloudy
5:56 PM 44.1 °F 39.0 °F 15.1 °F 31% 30.06 in 10.0 mi NW 9.2 mph - N/A   Clear
6:56 PM 37.9 °F 32.1 °F 15.1 °F 39% 30.09 in 10.0 mi WNW 8.1 mph - N/A   Clear
7:56 PM 37.0 °F 30.4 °F 16.0 °F 42% 30.09 in 10.0 mi WNW 9.2 mph - N/A   Clear
8:56 PM 39.0 °F 31.8 °F 16.0 °F 39% 30.11 in 10.0 mi NW 11.5 mph - N/A   Clear
9:56 PM 39.0 °F 32.3 °F 16.0 °F 39% 30.13 in 10.0 mi WNW 10.4 mph - N/A   Clear
10:56 PM 36.0 °F 32.1 °F 17.1 °F 46% 30.13 in 10.0 mi NW 4.6 mph - N/A   Clear
11:56 PM 37.0 °F 34.5 °F 17.1 °F 44% 30.14 in 10.0 mi Variable 3.5 mph - N/A   Clear